This is the latest recevied weather packets stored in our database for station/object WX7EM. If no packets are shown the sender has not sent any weather packets the latest 10 day(s).
| Time | Temp. | Humidity | Pressure | Rain* | Wind** | Luminosity | Snow |
|---|---|---|---|---|---|---|---|
| 1777515265 | 18.89° C | 47% | 1018.5 hPa | 0 mm | - | 43 W/m² | - |
| 1777514960 | 18.89° C | 48% | 1018.5 hPa | 0 mm | - | 60 W/m² | - |
| 1777514657 | 18.89° C | 48% | 1018.6 hPa | 0 mm | - | 64 W/m² | - |
| 1777514354 | 18.89° C | 47% | 1018.4 hPa | 0 mm | - | 68 W/m² | - |
| 1777514051 | 19.44° C | 47% | 1018.4 hPa | 0 mm | - | 67 W/m² | - |
| 1777513749 | 19.44° C | 47% | 1018.7 hPa | 0 mm | - | 75 W/m² | - |
| 1777513445 | 19.44° C | 47% | 1018.7 hPa | 0 mm | - | 65 W/m² | - |
| 1777513142 | 20° C | 47% | 1018.6 hPa | 0 mm | - | 97 W/m² | - |
| 1777512837 | 19.44° C | 47% | 1018.8 hPa | 0 mm | - | 104 W/m² | - |
| 1777512534 | 19.44° C | 46% | 1018.9 hPa | 0 mm | - | 132 W/m² | - |
| 1777512230 | 19.44° C | 47% | 1018.6 hPa | 0 mm | - | 121 W/m² | - |
| 1777511928 | 20° C | 46% | 1019 hPa | 0 mm | - | 150 W/m² | - |
| 1777511626 | 20° C | 46% | 1018.9 hPa | 0 mm | - | 155 W/m² | - |
| 1777511323 | 20° C | 46% | 1019 hPa | 0 mm | - | 167 W/m² | - |
| 1777511019 | 20° C | 46% | 1019 hPa | 0 mm | - | 180 W/m² | - |
| 1777510716 | 20° C | 46% | 1018.9 hPa | 0 mm | - | 189 W/m² | - |
| 1777510412 | 19.44° C | 46% | 1018.9 hPa | 0 mm | - | 194 W/m² | - |
| 1777510108 | 20° C | 46% | 1019.1 hPa | 0 mm | - | 209 W/m² | - |
| 1777509805 | 20.56° C | 45% | 1019 hPa | 0 mm | - | 220 W/m² | - |
| 1777509501 | 20° C | 47% | 1018.9 hPa | 0 mm | - | 230 W/m² | - |
| 1777509198 | 20° C | 45% | 1018.9 hPa | 0 mm | - | 110 W/m² | - |
| 1777508895 | 20° C | 46% | 1019 hPa | 0 mm | - | 184 W/m² | - |
| 1777508592 | 19.44° C | 46% | 1019 hPa | 0 mm | - | 220 W/m² | - |
| 1777508289 | 19.44° C | 46% | 1019.1 hPa | 0 mm | - | 86 W/m² | - |
| 1777507986 | 19.44° C | 46% | 1019.1 hPa | 0 mm | - | 82 W/m² | - |
* Rain latest hour (hover to see other rain measurements)
** Current wind speed in m/s (hover to see current wind gust speed)